Regional Weather Roundup
Issued by NWS Upton, NY

Current Version | Previous Version | Text Only | Print | Product List | Glossary Off
Versions: 1 2 3 4 5 6 7 8 9 10 11 12 13 14 15 16 17 18 19 20 21 22 23 24 25 26 27 28 29 30 31 32 33 34 35 36 37 38 39 40 41 42 43 44 45 46 47 48 49 50
000 ASUS41 KOKX 012205 RWROKX REGIONAL WEATHER ROUNDUP NATIONAL WEATHER SERVICE NEW YORK NY 500 PM EST SUN FEB 01 2015 NOTE: "FAIR" INDICATES FEW OR NO CLOUDS BELOW 12,000 FEET WITH NO SIGNIFICANT WEATHER AND/OR OBSTRUCTIONS TO VISIBILITY. NYZ071-072-176-178-NJZ106-104-012300- NEW YORK CITY METRO AREA CITY SKY/WX TMP DP RH WIND PRES REMARKS CENTRAL PARK MOCLDY 35 19 52 VRB3 30.15F LAGUARDIA APRT CLOUDY 35 20 54 W6 30.13F WCI 30 KENNEDY INTL CLOUDY 35 23 61 SW6 30.15F WCI 30 NEWARK/LIBERTY CLOUDY 35 21 56 W5 30.14F WCI 31 BRNX BOT. GARD N/A N/A N/A N/A SW6 30.15S TETERBORO MOCLDY 35 19 52 W6 30.13F WCI 30 $$ NYZ177-179-078>081-012300- LONG ISLAND NEW YORK CITY SKY/WX TMP DP RH WIND PRES REMARKS FARMINGDALE MOCLDY 34 20 56 W6 30.13F WCI 29 ISLIP MOCLDY 32 20 61 SW5 30.12F WCI 27 SHIRLEY PTCLDY 32 18 56 NW3 30.14F WESTHAMPTON MOCLDY 30 18 60 NE5 30.15S WCI 25 MONTAUK POINT N/A 33 21 61 W8 30.15S WCI 26 $$ NYZ052-065-067-012300- HUDSON VALLEY CITY SKY/WX TMP DP RH WIND PRES REMARKS WHITE PLAINS PTCLDY 32 20 61 CALM 30.10F NEWBURGH MOCLDY 32 21 64 NW6 30.11F WCI 26 MONTGOMERY MOCLDY 33 17 51 NW3 30.08F POUGHKEEPSIE PTCLDY 33 16 49 W5 30.11F WCI 29 ALBANY CLOUDY 23 8 52 NE8 30.15F WCI 14 $$ NJZ001-105-106-008-010-013-015-019>022-104-012300- NEW JERSEY CITY SKY/WX TMP DP RH WIND PRES REMARKS NEWARK/LIBERTY CLOUDY 35 21 56 W5 30.14F WCI 31 TETERBORO MOCLDY 35 19 52 W6 30.13F WCI 30 CALDWELL MOCLDY 34 19 54 CALM 30.13S MORRISTOWN CLOUDY 34 21 60 CALM 30.13S SOMERVILLE CLOUDY 36 22 56 CALM 30.11S SUSSEX CLOUDY 33 21 61 W3 30.09F ANDOVER N/A 32 21 64 CALM 30.09F TRENTON CLOUDY 36 23 59 CALM 30.12S MILLVILLE CLOUDY 36 21 54 S3 30.13F ATLANTIC CITY CLOUDY 38 19 46 S6 30.14F WCI 33 WRIGHTSTOWN CLOUDY 36 24 62 SW5 30.11S WCI 32 TOMS RIVER CLOUDY 37 25 60 CALM 30.13S BELMAR CLOUDY 36 18 48 W3 30.13S $$ PAZ047>061-062-071-012300- EASTERN PENNSYLVANIA CITY SKY/WX TMP DP RH WIND PRES REMARKS PHILADELPHIA CLOUDY 38 22 52 S7 30.13F WCI 33 ALLENTOWN CLOUDY 35 22 58 CALM 30.10F SCRANTON CLOUDY 29 23 78 NE3 30.05F HAZE $$ CTZ002-004>006-009-010-012-RIZ004-006-007-MAZ004-011-015-012300- SOUTHERN NEW ENGLAND IN CT CITY SKY/WX TMP DP RH WIND PRES REMARKS BRADLEY INTL CLOUDY 31 9 39 CALM 30.12R HARTFORD CLOUDY 32 12 43 VRB5 30.14R WCI 27 DANBURY CLEAR 30 16 56 CALM 30.11F WTRBRY/OXFORD MOCLDY 30 12 47 CALM 30.10S BRIDGEPORT CLEAR 32 25 75 S3 30.13S MERIDEN MOCLDY 31 15 52 CALM 30.13S NEW HAVEN PTCLDY 31 22 69 CALM 30.13F CHESTER FAIR 32 18 55 CALM 30.12S GROTON CLOUDY 32 17 54 W3 30.14R WILLIMANTIC CLOUDY 31 9 39 W6 30.13R WCI 25 IN RI CITY SKY/WX TMP DP RH WIND PRES REMARKS PROVIDENCE PTCLDY 31 10 41 W8 30.13R WCI 23 BLOCK ISLAND MOCLDY 32 18 55 W14 30.12S WCI 22 WESTERLY MOCLDY 33 11 39 CALM 30.14R IN MA CITY SKY/WX TMP DP RH WIND PRES REMARKS BOSTON MOCLDY 28 0 29 NW8 30.13R WCI 20 WORCESTER PTCLDY 30 6 36 W9 30.07R WCI 22 WESTFIELD MOCLDY 30 5 34 NW6 30.12R WCI 24 PROVINCETOWN PTCLDY 30 9 40 W18G24 30.12R WCI 18 NANTUCKET CLEAR 30 16 56 W9 30.11R WCI 22 $$ ANZ330-335-338-340-345-350-353-355-012300- COASTAL MARINE OBSERVATIONS STATION/POSITION TIME SKY/WX TEMP WIND PRES VSBY WAVE AIR SEA DIR/SP/G HT/PER (UTC) (F) (DEG/KT/KT) (MB) (MI) (FT/S) NY HARB ENTRANCE 2200 36 39 320/ 2/ 4 1020.5 1/10 4S FIRE IS NOT AVBL 20S FIRE ISLAND 2100 41 1021.7 2/ 4 23SW MTP 2200 N/A 3/ 5 HUDSON CANYON NOT AVBL EXECUTION ROCKS 2200 34 32 230/ 8/ 8 N/A WESTERN LI SOUND 2200 35 220/ 8/ 8 N/A 0 CENTRAL LI SOUND 2100 32 34 240/ 8/ 8 N/A 1/ 4 EASTERN LI SOUND NOT AVBL ROBBINS REEF 2200 35 310/ 7/ 8 1019.4 $$ >>>>>>>>>>>>>>>>>>>>>>>>>>>> KEY <<<<<<<<<<<<<<<<<<<<<<<<<<< > < > SKY/WX - SKY CONDITION/PRESENT WEATHER < > TMP - TEMPERATURE IN FAHRENHEIT < > DP - DEWPOINT IN FAHRENHEIT < > RH - RELATIVE HUMIDITY IN PERCENT < > WIND - DIRECTION AND SPEED IN MPH < > PRES - MEAN SEA LEVEL PRESSURE IN INCHES OF HG < > WCI - WIND CHILL INDEX < > VSB - VISIBILITY IN MILES < > HX - HEAT INDEX < > TC - TEMPERATURE IN CELSIUS < > VRB - VARIABLE WIND DIRECTION < > < >>>>>>>>>>>>>>>>>>>>>>>>>>>> KEY <<<<<<<<<<<<<<<<<<<<<<<<<<<

USA.gov is the U.S. government's official web portal to all federal, state and local government web resources and services.